OPS 0856 DEB, 25097

Orbit data source: Space-Track

OPS 0856 DEB, 25097 is space debris in LEO originally from a launch on Fri, 19 Aug 1966 UTC launched from the Air Force Western Test Range (AFWTR). Debris objects in space refer to the collection of defunct objects orbiting the Earth. Examples of debris include non-operational satellites, rocket bodies, and fragments generated from explosions, collisions, or faulty payload assembly.

Loading next visibility...
Identifier
25097, 1966-077S
Orbit
LEO
Country
Flag of USUS
Related business
Manufacturer
Unknown
Mission
Spacecraft
Bus & Motor
Unknown
Mass
Unknown
Launch date (UTC)
1966-08-19 (60 years ago)
Launch vehicle
Unknown
Launch site
Air Force Western Test Range (AFWTR)
Object type
Payload
Rocket body
Debris
Shape & HBR
Unknown shape, 1.1 m
Radar Cross Section
Medium (>0.1 m² and <1 m²)

Expand to show TLE details & history
Last TLE update: 2 months ago

TLE from 2 months ago
0 OPS 0856 DEB
1 25097U 66077S   26127.98757049 -.00000665  00000-0 -27693-1 0  9993
2 25097  88.2341 133.6972 1992327  68.6249 311.4962  8.93472887345789
Epoch: 2026-05-07T23:42Z
TLE epoch observation values (Epoch: 2026-05-07T23:42:06.090Z)
Latitude
0.00004°
Longitude
-87.654°
Altitude
2,404.483 km
Speed
7.083 km/s
True Right ascension
08h 54m 47s
True Declination
0° 00' 00"
Sunlit
Object was in daylight at epoch
Visualization orbit readout
Latitude
Unknown
Longitude
Unknown
Altitude
Unknown
Speed
Unknown
Apparent Right ascension
Unknown
Apparent Declination
Unknown
Sunlit
N/A
Visualization observer readout
Local Sidereal Time
00:56:03
Azimuth
Unknown
Elevation
Unknown
Doppler factor
Unknown
Orbital elements
Apogee altitude
5,383.814 km
Perigee altitude
1,475.706 km
Semi-major axis
9,807.897 km
Eccentricity
0.19923
Inclination
88.2341°
RAAN
133.6972°
Arg. of periapsis
68.6249°
True anomaly
291.47262°
Mean anomaly
311.4962°
Eccentric anomaly
301.79387°
Mean motion
2.23449 °/min
Orbital period
161.11 mins
BSTAR
-0.027693
Loading maneuver chart data...
Computing Atmospheric mass density...
Loading historical data...
Loading historical data...
Loading historical data...
Loading historical data...
Loading historical data...
Loading historical data...
Loading historical data...

Documentation

Showing up to 5 results
|